| time (UTC) | temp F | wind direction | speed MPH | gust MPH | rain 1hr in | rain 24hr in | rain mn in | humidity % | barometer mb |
| 20260504050001 | 51 | 225 | 1.0 | 2.0 | 0.00 | 0.00 | 0.00 | 61 | 1009.7 |
| 20260504044459 | 52 | 196 | 2.0 | 4.0 | 0.00 | 0.00 | 0.00 | 60 | 1009.7 |
| 20260504040007 | 52 | 202 | 2.0 | 4.0 | 0.00 | 0.00 | 0.00 | 59 | 1009.9 |
| 20260504034501 | 52 | 177 | 2.0 | 4.0 | 0.00 | 0.00 | 0.00 | 59 | 1009.9 |
| 20260504030005 | 54 | 210 | 4.0 | 11.0 | 0.00 | 0.00 | 0.00 | 56 | 1009.9 |
| 20260504024501 | 54 | 234 | 4.0 | 8.0 | 0.00 | 0.00 | 0.00 | 56 | 1009.9 |
| 20260504021502 | 53 | 232 | 4.0 | 8.0 | 0.00 | 0.00 | 0.00 | 58 | 1010.1 |
| 20260504020005 | 54 | 250 | 5.0 | 12.0 | 0.00 | 0.00 | 0.00 | 58 | 1010.1 |
| 20260504014501 | 53 | 281 | 4.0 | 15.0 | 0.00 | 0.00 | 0.00 | 59 | 1010.2 |
| 20260504013001 | 53 | 208 | 3.0 | 5.0 | 0.00 | 0.00 | 0.00 | 62 | 1010.1 |
| 20260504011501 | 52 | 215 | 2.0 | 5.0 | 0.00 | 0.00 | 0.00 | 67 | 1010.1 |
| 20260504004502 | 51 | 249 | 2.0 | 4.0 | 0.00 | 0.00 | 0.00 | 70 | 1010.4 |
| 20260504003001 | 51 | 287 | 1.0 | 4.0 | 0.00 | 0.00 | 0.00 | 71 | 1010.4 |
| 20260504001501 | 51 | 248 | 1.0 | 4.0 | 0.00 | 0.00 | 0.00 | 73 | 1010.7 |
| 20260504000006 | 51 | 271 | 2.0 | 6.0 | 0.00 | 0.00 | 0.00 | 74 | 1010.8 |
| 20260503233002 | 51 | 289 | 5.0 | 12.0 | 0.00 | 0.00 | 0.00 | 72 | 1010.6 |
| 20260503231502 | 52 | 294 | 8.0 | 19.0 | 0.00 | 0.00 | 0.00 | 69 | 1010.5 |
| 20260503224501 | 54 | 225 | 6.0 | 16.0 | 0.00 | 0.00 | 0.00 | 58 | 1010.3 |
| 20260503223001 | 54 | 277 | 7.0 | 15.0 | 0.00 | 0.00 | 0.00 | 59 | 1010.0 |
| 20260503221502 | 54 | 232 | 8.0 | 17.0 | 0.00 | 0.00 | 0.00 | 56 | 1010.2 |
| 20260503220006 | 55 | 252 | 6.0 | 18.0 | 0.00 | 0.00 | 0.00 | 54 | 1010.1 |
| 20260503214501 | 55 | 219 | 6.0 | 14.0 | 0.00 | 0.00 | 0.00 | 51 | 1010.0 |
| 20260503213001 | 55 | 263 | 6.0 | 17.0 | 0.00 | 0.00 | 0.00 | 52 | 1010.2 |
| 20260503210005 | 55 | 284 | 6.0 | 14.0 | 0.00 | 0.00 | 0.00 | 52 | 1010.2 |
| 20260503201500 | 57 | 244 | 7.0 | 19.0 | 0.00 | 0.00 | 0.00 | 49 | 1010.3 |
| 20260503200004 | 57 | 204 | 8.0 | 20.0 | 0.00 | 0.00 | 0.00 | 47 | 1010.6 |
| 20260503194500 | 56 | 243 | 8.0 | 17.0 | 0.00 | 0.00 | 0.00 | 46 | 1010.8 |
| 20260503193000 | 57 | 225 | 7.0 | 17.0 | 0.00 | 0.00 | 0.00 | 46 | 1011.3 |
| 20260503190004 | 55 | 265 | 7.0 | 14.0 | 0.00 | 0.00 | 0.00 | 47 | 1011.6 |
| 20260503183000 | 54 | 278 | 7.0 | 19.0 | 0.00 | 0.00 | 0.00 | 45 | 1012.3 |
| 20260503181500 | 55 | 235 | 7.0 | 14.0 | 0.00 | 0.00 | 0.00 | 45 | 1012.4 |
| 20260503180006 | 54 | 262 | 6.0 | 13.0 | 0.00 | 0.00 | 0.00 | 45 | 1012.4 |
| 20260503174500 | 53 | 269 | 5.0 | 13.0 | 0.00 | 0.00 | 0.00 | 44 | 1012.5 |
| 20260503173000 | 54 | 289 | 6.0 | 15.0 | 0.00 | 0.00 | 0.00 | 50 | 1012.7 |
| 20260503171501 | 53 | 238 | 6.0 | 14.0 | 0.00 | 0.00 | 0.00 | 49 | 1012.8 |
| 20260503081459 | 34 | 223 | 0.0 | 0.0 | 0.00 | 0.00 | 0.00 | 89 | 1014.6 |
| 20260503071501 | 36 | 226 | 0.0 | 2.0 | 0.00 | 0.00 | 0.00 | 86 | 1014.6 |